Location: アルンシュタイン
(50.0000°N, 10.0000°E)
Time: 18:44:01
(UTC+02:00)

Altair - All Passes

Search period start: 11 September 2024 00:00
Search period end: 21 September 2024 00:00
Orbit: 1501 x 1682 km, 47.2° (Epoch: 11 September)

Date Brightness Start Highest point End Pass type
(mag) Time Alt. Az. Time Alt. Az. Time Alt. Az.
11 Sep - 03:22:15 10° S 03:29:31 23° SE 03:36:52 10° E visible
11 Sep - 05:23:01 10° SW 05:32:43 55° SSE 05:42:29 10° E visible
11 Sep - 07:26:57 10° W 07:37:06 77° S 07:47:12 10° E daylight
11 Sep - 09:31:41 10° W 09:41:42 65° SSW 09:51:30 10° ESE daylight
11 Sep - 11:36:46 10° W 11:45:20 33° SW 11:53:42 10° SSE daylight
12 Sep - 02:57:34 10° S 03:04:27 21° SE 03:11:24 10° E visible
12 Sep - 04:57:55 10° SW 05:07:32 52° SSE 05:17:14 10° ENE visible
12 Sep - 07:01:43 10° WSW 07:11:52 76° S 07:21:58 10° E daylight
12 Sep - 09:06:26 10° W 09:16:29 67° SSW 09:26:21 10° ESE daylight
12 Sep - 11:11:27 10° W 11:20:13 35° SW 11:28:48 10° SSE daylight
13 Sep - 02:32:57 10° SSE 02:39:23 19° SE 02:45:52 10° E visible
13 Sep - 04:32:50 10° SW 04:42:21 50° SSE 04:51:58 10° ENE visible
13 Sep - 06:36:30 10° WSW 06:46:37 76° S 06:56:44 10° E daylight
13 Sep - 08:41:11 10° W 08:51:16 69° SSW 09:01:11 10° ESE daylight
13 Sep - 10:46:08 10° WNW 10:55:06 38° SW 11:03:53 10° SSE daylight
13 Sep - 12:55:21 10° WSW 12:57:28 11° WSW 12:59:36 10° SW daylight
14 Sep - 02:08:25 10° SSE 02:14:20 18° SE 02:20:18 10° E visible
14 Sep - 04:07:47 10° SW 04:17:11 47° SSE 04:26:42 10° ENE visible
14 Sep - 06:11:17 10° WSW 06:21:22 75° S 06:31:29 10° E visible
14 Sep - 08:15:56 10° W 08:26:02 71° SSW 08:36:01 10° ESE daylight
14 Sep - 10:20:50 10° WNW 10:29:58 40° SW 10:38:55 10° SSE daylight
14 Sep - 12:28:51 10° W 12:32:28 12° WSW 12:36:03 10° SW daylight
15 Sep - 01:43:59 10° SSE 01:49:17 16° SE 01:54:38 10° E visible
15 Sep - 03:42:45 10° SSW 03:52:01 45° SE 04:01:26 10° ENE visible
15 Sep - 05:46:04 10° WSW 05:56:08 74° SSE 06:06:15 10° E visible
15 Sep - 07:50:41 10° W 08:00:48 72° SSW 08:10:49 10° ESE daylight
15 Sep - 09:55:32 10° WNW 10:04:49 43° SW 10:13:55 10° SSE daylight
15 Sep - 12:02:50 10° W 12:07:26 14° WSW 12:11:59 10° SSW daylight
16 Sep - 01:19:42 10° SSE 01:24:15 14° ESE 01:28:50 10° E visible
16 Sep - 03:17:44 10° SSW 03:26:52 42° SE 03:36:09 10° ENE visible
16 Sep - 05:20:52 10° WSW 05:30:53 72° SSE 05:41:01 10° E visible
16 Sep - 07:25:26 10° W 07:35:34 74° SSW 07:45:37 10° ESE daylight
16 Sep - 09:30:15 10° WNW 09:39:40 45° SW 09:48:55 10° SSE daylight
16 Sep - 11:37:03 10° W 11:42:24 16° SW 11:47:42 10° SSW daylight
17 Sep - 00:55:39 10° SE 00:59:14 12° ESE 01:02:50 10° E visible
17 Sep - 02:52:45 10° SSW 03:01:43 40° SE 03:10:52 10° ENE visible
17 Sep - 04:55:40 10° WSW 05:05:39 71° SSE 05:15:46 10° E visible
17 Sep - 07:00:11 10° W 07:10:19 75° S 07:20:24 10° ESE daylight
17 Sep - 09:04:58 10° WNW 09:14:31 47° SSW 09:23:53 10° SE daylight
17 Sep - 11:11:22 10° W 11:17:21 18° SW 11:23:16 10° SSW daylight
18 Sep - 00:32:07 10° SE 00:34:12 11° ESE 00:36:19 10° ESE visible
18 Sep - 02:27:48 10° SSW 02:36:35 38° SE 02:45:33 10° ENE visible
18 Sep - 04:30:29 10° WSW 04:40:25 69° SSE 04:50:31 10° E visible
18 Sep - 06:34:57 10° W 06:45:04 76° S 06:55:11 10° ESE daylight
18 Sep - 08:39:43 10° WNW 08:49:20 50° SSW 08:58:50 10° SE daylight
18 Sep - 10:45:48 10° W 10:52:18 20° SW 10:58:44 10° SSW daylight
19 Sep - 02:02:53 10° SSW 02:11:28 35° SE 02:20:15 10° E visible
19 Sep - 04:05:19 10° WSW 04:15:12 67° SSE 04:25:16 10° E visible
19 Sep - 06:09:43 10° W 06:19:50 76° S 06:29:58 10° ESE visible
19 Sep - 08:14:27 10° WNW 08:24:10 52° SSW 08:33:45 10° SE daylight
19 Sep - 10:20:17 10° W 10:27:14 21° SW 10:34:07 10° S daylight
20 Sep - 01:37:58 10° SSW 01:46:21 33° SE 01:54:55 10° E visible
20 Sep - 03:40:10 10° WSW 03:49:59 65° SSE 04:00:01 10° E visible
20 Sep - 05:44:29 10° W 05:54:35 77° S 06:04:44 10° E visible
20 Sep - 07:49:12 10° W 07:58:58 55° SSW 08:08:40 10° SE daylight
20 Sep - 09:54:49 10° W 10:02:10 23° SW 10:09:27 10° S daylight
